www.pogodaiklimat.ru
ПОГОДА в Кливленде
Время
и дата
11:45 14.07
12:45 14.07
13:45 14.07
14:45 14.07
15:45 14.07
16:45 14.07
17:45 14.07
18:25 14.07
18:45 14.07
19:45 14.07
20:45 14.07
21:45 14.07
22:15 14.07
22:35 14.07
22:55 14.07
23:15 14.07
23:35 14.07
23:55 14.07
00:15 15.07
00:35 15.07
00:55 15.07
01:15 15.07
01:35 15.07
01:55 15.07
02:15 15.07
02:35 15.07
02:55 15.07
03:15 15.07
03:35 15.07
03:55 15.07
04:15 15.07
04:35 15.07
04:55 15.07
05:15 15.07
06:45 15.07
07:45 15.07
08:45 15.07
09:45 15.07
10:45 15.07
11:45 15.07
12:45 15.07
13:45 15.07
14:45 15.07
15:45 15.07
16:45 15.07
17:45 15.07
18:45 15.07
19:45 15.07
Ветер
(напр.,м/с)
Видим. Явления Облачность Т
(С)
Тd
(С)
f
(%)
Тe
(С)
Тes
(С)
Комфортность P
(гПа)
Po
(гПа)
Тmin
(С)
Tmax
(С)
R
(мм)
R24
(мм)
S
(см)
ЮЗ 7
{10}
16 км 8/5 1050 m
[Ac]
+29.0 +20.0 58 +35 +37 очень
душно
984.9
З 7
{9}
16 км 8/5 1500 m
[Ac]
+29.0 +19.0 55 +34 +36 очень
душно
984.6
ЮЗ 8
{10}
16 км 5/0 2100 m
[Ac]
+30.0 +19.0 52 +35 +38 очень
душно
983.9
ЮЗ 7 16 км 5/5 1950 м +30.0 +18.0 49 +35 +37 очень
душно
983.9
ЮЗ 7
{11}
16 км 2/0 2400 m
[Ac]
+31.0 +19.0 49 +36 +40 очень
душно
982.9
ЮЗ 7 16 км 8/8 1440 m
[Ac]
+30.0 +20.0 55 +36 +37 очень
душно
982.3
ЮЗ 5 16 км 10/10 1440 м +30.0 +20.0 55 +36 +36 очень
душно
982.3
З 8
{12}
3 км гроза с дождем, дымка 10/10 240 m
[Cb]
+23.0 +22.0 94
З 4 8 км гроза с дождем, дымка 10/8 240 m
[Ac Cb]
+22.0 +21.0 94
ЮЗ 4 16 км ясно +22.0 +22.0 100 +29 +29 очень
душно
982.6
ЮЗ 3 16 км ясно +23.0 +22.0 94 +31 +31 очень
душно
982.9
ЮЗ 4 16 км ясно +22.0 +21.0 94 +28 +28 душно 982.6
ЮЗ 5 16 км ясно +21.8 +20.4 92 +28 +28 душно 982.6
Ю 4 16 км ясно +21.8 +20.1 90 +27 +27 душно 982.3
ЮЗ 3 16 км ясно +21.5 +19.8 90 +27 +27 душно 982.6
ЮЗ 4 16 км ясно +21.4 +20.0 92 +27 +27 душно 982.3
ЮЗ 4 16 км ясно +21.4 +19.9 91 +26 +26 душно 982.6
ЮЗ 3 16 км 5/0 3000 m
[Ac]
+21.4 +19.8 91 +26 +26 душно 982.6
ЮЗ 3 16 км 5/0 3000 m
[Ac]
+21.2 +19.9 92 +26 +26 душно 982.9
ЮЗ 4 16 км 8/0 3300 m
[Ac]
+21.3 +19.8 91 +26 +26 душно 982.9
ЮЗ 4 16 км 5/0 3300 m
[Ac]
+21.5 +19.9 91 +27 +27 душно 982.9 +21.1 +22.8
ЮЗ 4 16 км 8/0 3300 m
[Ac]
+21.4 +20.1 92 +27 +27 душно 982.9
Ю 3 16 км 5/0 3300 m
[Ac]
+21.8 +20.1 90 +27 +27 душно 982.3
ЮЗ 4 16 км ясно +21.8 +20.4 92 +28 +28 душно 982.0
ЮЗ 4 16 км 8/8 810 м +22.1 +20.8 92 +28 +28 душно 982.0
ЮЗ 5 16 км 10/10 600 м +22.6 +20.6 88 +29 +29 очень
душно
981.6
ЮЗ 4 16 км 8/8 600 м +22.6 +20.4 87 +29 +29 очень
душно
981.6
ЮЗ 4 16 км 5/5 600 м +22.8 +20.4 86 +30 +30 очень
душно
981.6
Ю 4 16 км 8/8 960 м +22.9 +20.6 87 +30 +30 очень
душно
981.6
Ю 3 16 км 8/8 840 m
[Ac]
+22.8 +20.4 86 +30 +30 очень
душно
981.6
Ю 3 16 км гроза 10/10 720 m
[Cb]
+22.7 +20.9 90
Ю 3 16 км гроза 10/10 660 m
[Cb]
+22.6 +21.0 91 +30 +30 очень
душно
981.6
ЮВ 3 16 км гроза 10/10 840 m
[Cb]
+21.7 +20.8 95 +28 +28 душно 981.6
Ю 4 16 км 8/8 1050 m
[Ac]
+22.0 +20.9 93 +28 +28 душно 981.6
ЮЗ 5 16 км 8/8 810 м +24.0 +22.0 89 +31 +31 очень
душно
981.0
ЮЗ 3 16 км 8/5 690 m
[Ac]
+25.0 +23.0 89 +33 +34 очень
душно
980.6
ЮЗ 3 16 км 5/5 570 m
[Ac]
+27.0 +23.0 79 +36 +39 очень
душно
980.3
ЮЗ 5 16 км 8/0 3900 m
[Ac]
+26.0 +23.0 84 +35 +37 очень
душно
980.0
ЮЗ 8
{10}
16 км 5/5 990 м +28.0 +21.0 66 +35 +37 очень
душно
979.7
З 9
{12}
16 км 10/10 1170 м +27.0 +21.0 70 +34 +34 очень
душно
980.0
З 9
{11}
16 км 5/5 +28.0 +21.0 66 +35 +36 очень
душно
980.0
СЗ 10
{13}
16 км 2/2 900 м +27.0 +20.0 66 +33 +34 очень
душно
980.0
З 9
{11}
16 км 2/2 1350 м +27.0 +21.0 70 +34 +35 очень
душно
980.0
З 7 16 км ясно +27.0 +21.0 70 +34 +38 очень
душно
979.7
З 4 16 км ясно +28.0 +21.0 66 +35 +42 очень
душно
979.3
З 4 16 км ясно +28.0 +21.0 66 +35 +39 очень
душно
979.0
З 2 16 км ясно +28.0 +21.0 66 +35 +38 очень
душно
978.7
штиль 0 16 км ясно +27.0 +21.0 70 +34 +35 очень
душно
978.3
Местоположение метеостанции Cuyahoga County Airport: широта 41.5667 долгота -81.4833 высота над уровнем моря 268 м.
В архиве по умолчанию представлена погода в Кливленде за последние 1-2 суток. Обновление информации о фактической погоде в базе происходит ежечасно! Архивные данные за месяц целиком и за предыдущие месяцы Вы можете получить, выбрав интересующий диапазон дат из раскрывающегося списка и нажав кнопку "Ввод!".
Внимание! Архив погоды МЕТАР в базе сайта по станциям, не включенным в климатический монитор, хранится не более 60 дней. Нет смысла пытаться выбрать более раннюю дату.
*Определитесь, кто Вы:
Внимание! Время в таблицах - местное (без учета летнего времени). Для получения всемирного времени необходимо вычесть поправку, которая равна -5 ч.
Смотрите также архив погоды в соседних городах и на ближайших метеорологических станциях:
Партнеры нашего сайта:      
Пояснения к столбцам:
  • Ветер - указаны скорость ветра в м/с - средняя за 10 мин, порывы в срок и между сроками (в фигурных скобках) и направление, откуда дует ветер: С - северный,
  • СВ - северо-восточный, В - восточный, ЮВ - юго-восточный, Ю - южный, ЮЗ - юго-западный, З - западный, СЗ - северо-западный.
  • Видимость - горизонтальная дальность видимости в метрах или километрах. При видимости от 1 до 10 км при отсутствии осадков обычно наблюдается дымка, при ухудшении видимости до 1 км и менее - туман. В сухую погоду видимость может ухудшаться дымом, пылью или мглою.
  • Явления - указаны атмосферные явления, наблюдавшиеся в срок или в последний час перед сроком; фигурными скобками обозначены явления, наблюдавшиеся между сроками (за 1-3 часа до срока); квадратными скобками обозначены град или гололедные отложения с указанием их диаметра в мм.
  • Облачность - указаны через наклонную черту общая и нижняя облачность в баллах и высота нижней границы облаков в метрах; квадратными скобками обозначены формы облаков: Ci - перистые, Cs - перисто-слоистые, Cc - перисто-кучевые, Ac - высококучевые, As - высокослоистые, Sc - слоисто-кучевые, Ns - слоисто-дождевые, Cu - кучевые, Cb - кучево-дождевые. Подробнее классификацию облаков см. в Атласе облаков (PDF).
  • T - Температура воздуха - температура, измеренная на высоте 2 м над землей.
  • Td - Температура точки росы - температура, при понижении до которой содержащийся в воздухе водяной пар достигнет насыщения.
  • f - Относительная влажность воздуха - влажноcть воздуха, измеренная на высоте 2 м над землей.
  • Te - Эффективная температура - температура, которую ощущает одетый по сезону человек в тени. Характеристика душности погоды. При расчете учитывается влияние влажности воздуха и скорости ветра на теплоощущения человека.
  • Tes - Эффективная температура на солнце - температура, которую ощущает человек, с поправкой на солнечный нагрев. Характеристика знойности погоды. Зависит от высоты солнца над горизонтом, облачности и скорости ветра. Ночью, в пасмурную погоду, а также при ветре 12 м/с и более поправка равна нулю.
  • P - Атмосферное давление - приведенное к уровню моря атмосферное давление.
  • Po - Атмосферное давление - измеренное на уровне метеостанции атмосферное давление.
  • Tmin - Минимальная температура - минимум температуры воздуха на высоте 2 м над землей.
  • Tmax - Максимальная температура - максимум температуры воздуха на высоте 2 м над землей.
  • R - Количество осадков - Количество выпавших осадков за период времени, мм. При наведении курсора мыши на число - период времени, за который выпало указанное количество осадков.
  • R24 - Количество осадков - Количество выпавших осадков за 24 часа, мм.
  • S - Снежный покров - Высота снежного покрова, см. При наведении курсора мыши на число - состояние снежного покрова и степень покрытия местности в баллах.